Date_(UTC),Time_(UTC),Sample_ID,Latitude_(Decimal_Degrees),Longitude_(Decimal_Degrees),Temperature_(Celcius),Salinity_(PSU),DIC_(�mol_kg-1),TA_(�mol_kg-1-sw)
8/6/2010,15:59,3,68.75583928,-167.2458792,6.8,31.43,1893.7,2153.6
8/6/2010,23:28,7,70.1455123,-164.3614281,7.2,31.5,1980.8,2219
8/7/2010,7:29,11,71.1226728,-159.8517684,4.4,29.5,1843.7,2064.3
8/7/2010,20:09,17,71.969465,-154.382733,1,26.98,1787.4,1918.2
8/8/2010,4:37,21,71.68268272,-150.6272272,1.7,19.81,1489.2,1561
8/8/2010,13:05,26,71.29901568,-147.3095429,0.5,20.88,1533,1608.4
8/8/2010,21:08,30,70.86766767,-143.294361,2.7,20.62,1495.5,1588.6
8/9/2010,5:16,34,70.87751083,-139.9015015,8.3,23.6,1741.8,1839.3
8/9/2010,12:50,38,71.56351363,-139.2715048,-0.1,25.29,1748.9,1841.4
8/9/2010,21:02,42,72.24217555,-138.4489656,-1.1,25.62,1788.3,1873.9
8/10/2010,5:00,46,72.9288455,-137.6093427,-1.3,26.42,1835.2,1935.6
8/10/2010,9:00,48,73.17584262,-138.8855856,-1,24.71,1750.9,1826.5
8/10/2010,17:00,52,72.52751092,-139.6655656,-1.2,25.59,1776.6,1862
8/11/2010,4:20,55,71.96418085,-139.9440774,-0.8,25.23,1725.4,1868.4
8/11/2010,19:05,62,70.52017017,-140.5373373,7.9,24.56,1798.5,1935.9
8/12/2010,9:00,67,71.06916918,-142.7927761,7.2,24.53,1809.1,1960.4
8/12/2010,17:56,72,71.35100105,-144.3795629,6.7,25.07,1813,1904.1
8/14/2010,6:36,77,71.31783458,-146.8267267,2.7,25.12,1784.6,1877.7
8/14/2010,18:25,83,72.55767443,-145.3910744,0.4,25.76,1775.1,1858
8/15/2010,5:51,87,73.14384392,-145.3514014,-0.9,25.06,1755.5,1849.2
8/15/2010,21:40,94,73.92283952,-145.319019,-1.1,24.62,1758.2,1851.8
8/16/2010,5:18,98,73.5528362,-146.4994328,-0.9,24.97,1760.1,1865.4
8/16/2010,21:10,105,72.51201205,-149.7900067,5.1,26.41,1839,1976.5
8/18/2010,19:05,113,73.46267933,-150.8492159,-0.9,24.74,1735.9,1829.4
8/19/2010,5:04,118,74.15517198,-150.4035202,-0.7,25.02,1758.5,1893
8/19/2010,11:00,121,74.5221722,-150.1498332,-1,24.6,1726.4,1831.3
8/19/2010,21:00,126,75.05367047,-151.3372706,-0.8,24.82,1770.8,1850.1
8/20/2010,3:00,129,75.29034033,-152.6000334,-0.8,24.81,1767.5,1847.7
8/20/2010,9:00,132,75.53633645,-153.8404905,-1,24.95,1751.9,1841.6
8/20/2010,17:00,136,75.77634312,-155.5650317,-1.1,25.27,1768.6,1855.6
8/21/2010,7:00,140,76.21683363,-154.7869369,-0.8,24.77,1740.1,1845.9
8/21/2010,21:00,147,76.371858,-151.339123,-0.9,25.13,1752.5,1829.9
8/22/2010,3:00,150,76.44801477,-149.6480314,-1,26.16,1817.4,1906.6
8/23/2010,2:00,153,77.28633638,-148.4828328,-1.2,26.27,1824,1917.3
8/23/2010,10:00,157,78.04234237,-152.9007341,-1.3,27,1852.9,1974.7
8/23/2010,23:00,162,78.39017365,-150.7945445,-1.3,27.42,1872.3,1982
8/24/2010,3:00,164,78.459232,-150.011932,-1.3,27.48,1897.5,2016.2
8/24/2010,5:00,165,78.52951292,-149.3706206,-1.3,27.64,1886.1,1993
8/24/2010,21:30,173,79.12267278,-143.7730898,-1.4,28.32,1931,2057.6
8/25/2010,4:00,176,79.81568235,-141.0289122,-1.3,27.65,1883.9,1990.2
8/25/2010,10:00,179,80.21401405,-139.5446446,-1,27.34,1871.2,1969.5
8/25/2010,18:00,183,80.780347,-137.3987154,-1.4,27.53,1871,1975.8
8/26/2010,2:00,187,81.42817828,-134.8213547,-1.3,27.9,1887.8,2000.1
8/26/2010,10:00,191,81.58151488,-134.6115449,-1.4,28.47,1898.4,2018.5
8/26/2010,22:00,195,81.81929,-135.341736,-1.4,27,1871.8,1997.2
8/27/2010,2:00,197,82.16384717,-137.0662996,-1.5,27.95,1858.9,1979.8
8/27/2010,23:00,202,82.22167182,-134.8357024,-1.5,28.55,1901.1,2037.2
8/28/2010,10:00,207,81.86584922,-130.0884384,-1.5,27.48,1856.2,1971.8
8/28/2010,23:02,211,81.72267272,-127.2170337,-1.5,28.9,1880.9,1990
8/29/2010,10:00,215,81.53383393,-124.1422089,-1.5,29.21,1932.3,2067.8
8/29/2010,22:00,221,81.0360028,-119.5109943,-1.5,29.91,1980.7,2122.7
8/30/2010,6:00,225,80.80600613,-120.5303303,-1.5,29.13,1907.8,2051.1
8/30/2010,21:00,232,80.24784787,-125.2077744,-1.5,29.04,1920.3,2054.6
8/31/2010,7:00,237,79.59484495,-131.0384718,-1.4,26.7,1914.7,1992.8
8/31/2010,22:00,245,77.73500175,-136.5501835,-0.8,26.17,1841.1,1909.5
9/1/2010,4:00,248,77.0190024,-137.7426593,-0.7,25.93,1828.1,1921.7
9/1/2010,10:00,251,76.27083765,-139.3633467,-0.2,25.19,1784.3,1859.6
9/2/2010,0:00,256,75.14451128,-138.9676176,-0.3,24.73,1763.5,1832.4
9/2/2010,10:00,261,74.5595095,-135.425025,-0.6,25.16,1789.5,1865.8
9/2/2010,20:00,266,74.43783783,-131.9030531,-1.3,27.36,1827,1953.9
9/3/2010,4:00,270,75.31084425,-131.4956957,-1.4,26.96,1810.8,1933.5
9/3/2010,10:00,273,75.91983665,-131.1574575,-1.4,25.68,1736.7,1835.3
9/4/2010,10:00,282,76.67317318,-131.0199199,-1.3,27.37,1884.6,1968.1
9/4/2010,20:00,287,76.7948449,-133.8400734,-1.1,25.79,1803.4,1884.1
9/5/2010,4:00,291,76.86134482,-136.0365032,-0.6,25.31,1789.2,1858.2
9/5/2010,20:00,299,75.79100775,-136.6044044,-0.8,25.36,1813.9,1866.3
9/6/2010,6:00,304,74.83550217,-142.7465465,-0.1,24.3,1739.8,1793.3
9/6/2010,12:00,307,73.94584593,-147.0548549,-0.6,24.31,1768.3,1791.8
